TIANMU-1 10
Last updated on Mon Jun 22 2026 00:02:46 GMT+0000 (Coordinated Universal Time)
1 57402U 23101D 26172.46563515 .00005026 00000+0 17632-3 0 9992
2 57402 97.2615 223.2743 0006346 115.1029 245.0871 15.29857439162291
Next 0 passes for location: London (51.5072 / 0.1276)
No passes found over London.